Time,TemperatureF,DewpointF,PressureIn,WindDirection,WindDirectionDegrees,WindSpeedMPH,WindSpeedGustMPH,Humidity,HourlyPrecipIn,Conditions,Clouds,dailyrainin,SolarRadiationWatts/m^2,SoftwareType,DateUTC
2013-01-18 00:04:00,32.0,31.0,-100.00,North,0,2.0,4.0,95,0.00,,,0.49,0.000000,,2013-01-18 05:04:00,
2013-01-18 00:33:00,32.0,30.0,-100.00,North,0,3.0,6.0,94,0.00,,,0.48,0.000000,,2013-01-18 05:33:00,
2013-01-18 00:43:00,32.0,30.0,-100.00,North,0,3.0,6.0,94,0.00,,,0.48,0.000000,,2013-01-18 05:43:00,
2013-01-18 00:53:00,32.0,30.0,-100.00,North,0,3.0,6.0,94,0.00,,,0.48,0.000000,,2013-01-18 05:53:00,
2013-01-18 01:02:00,32.0,30.0,-100.00,North,0,3.0,6.0,94,0.00,,,0.48,0.000000,,2013-01-18 06:02:00,
2013-01-18 01:33:00,32.0,26.0,-100.00,North,4,2.0,8.0,79,0.00,,,0.47,0.000000,,2013-01-18 06:33:00,
2013-01-18 01:43:00,32.0,26.0,-100.00,North,4,2.0,8.0,79,0.00,,,0.47,0.000000,,2013-01-18 06:43:00,
2013-01-18 01:53:00,32.0,26.0,-100.00,North,4,2.0,8.0,79,0.00,,,0.47,0.000000,,2013-01-18 06:53:00,
2013-01-18 02:02:00,32.0,26.0,-100.00,North,4,2.0,8.0,79,0.00,,,0.47,0.000000,,2013-01-18 07:02:00,
2013-01-18 02:33:00,30.0,26.0,-100.00,NNW,340,2.0,4.0,86,0.00,,,0.47,0.000000,,2013-01-18 07:33:00,
2013-01-18 02:42:00,30.0,26.0,-100.00,NNW,340,2.0,4.0,86,0.00,,,0.47,0.000000,,2013-01-18 07:42:00,
2013-01-18 02:52:00,30.0,26.0,-100.00,NNW,340,2.0,4.0,86,0.00,,,0.47,0.000000,,2013-01-18 07:52:00,
2013-01-18 03:02:00,30.0,26.0,-100.00,NNW,340,2.0,4.0,86,0.00,,,0.47,0.000000,,2013-01-18 08:02:00,
2013-01-18 03:33:00,30.0,25.0,-100.00,WNW,283,2.0,6.0,80,0.00,,,0.47,0.000000,,2013-01-18 08:33:00,
2013-01-18 03:43:00,30.0,25.0,-100.00,WNW,283,2.0,6.0,80,0.00,,,0.47,0.000000,,2013-01-18 08:43:00,
2013-01-18 03:53:00,30.0,25.0,-100.00,WNW,283,2.0,6.0,80,0.00,,,0.47,0.000000,,2013-01-18 08:53:00,
2013-01-18 04:03:00,30.0,25.0,-100.00,WNW,283,2.0,6.0,80,0.00,,,0.47,0.000000,,2013-01-18 09:03:00,
2013-01-18 04:33:00,30.0,26.0,-100.00,NW,323,2.0,7.0,86,0.00,,,0.47,0.000000,,2013-01-18 09:33:00,
2013-01-18 04:43:00,30.0,26.0,-100.00,NW,323,2.0,7.0,86,0.00,,,0.47,0.000000,,2013-01-18 09:43:00,
2013-01-18 04:53:00,30.0,26.0,-100.00,NW,323,2.0,7.0,86,0.00,,,0.47,0.000000,,2013-01-18 09:53:00,
2013-01-18 05:03:00,30.0,26.0,-100.00,NW,323,2.0,7.0,86,0.00,,,0.47,0.000000,,2013-01-18 10:03:00,
2013-01-18 05:33:00,29.0,25.0,-100.00,NE,38,2.0,7.0,83,0.00,,,0.46,0.000000,,2013-01-18 10:33:00,
2013-01-18 05:43:00,29.0,25.0,-100.00,NE,38,2.0,7.0,83,0.00,,,0.46,0.000000,,2013-01-18 10:43:00,
2013-01-18 05:53:00,29.0,25.0,-100.00,NE,38,2.0,7.0,83,0.00,,,0.46,0.000000,,2013-01-18 10:53:00,
2013-01-18 06:03:00,29.0,25.0,-100.00,NE,38,2.0,7.0,83,0.00,,,0.46,0.000000,,2013-01-18 11:03:00,
2013-01-18 06:33:00,28.0,25.0,-100.00,North,350,2.0,4.0,88,0.00,,,0.46,0.000000,,2013-01-18 11:33:00,
2013-01-18 06:43:00,28.0,25.0,-100.00,North,350,2.0,4.0,88,0.00,,,0.46,0.000000,,2013-01-18 11:43:00,
2013-01-18 06:53:00,28.0,25.0,-100.00,North,350,2.0,4.0,88,0.00,,,0.46,0.000000,,2013-01-18 11:53:00,
2013-01-18 07:03:00,28.0,25.0,-100.00,North,350,2.0,4.0,88,0.00,,,0.46,0.000000,,2013-01-18 12:03:00,
2013-01-18 07:33:00,27.0,23.0,-100.00,NW,310,1.0,5.0,84,0.00,,,0.44,0.000000,,2013-01-18 12:33:00,
2013-01-18 07:43:00,27.0,23.0,-100.00,NW,310,1.0,5.0,84,0.00,,,0.44,0.000000,,2013-01-18 12:43:00,
2013-01-18 07:53:00,27.0,23.0,-100.00,NW,310,1.0,5.0,84,0.00,,,0.44,0.000000,,2013-01-18 12:53:00,
2013-01-18 08:03:00,27.0,23.0,-100.00,NW,310,1.0,5.0,84,0.00,,,0.44,0.000000,,2013-01-18 13:03:00,
2013-01-18 08:33:00,26.0,22.0,-100.00,NNE,19,1.0,4.0,86,0.00,,,0.43,1.000000,,2013-01-18 13:33:00,
2013-01-18 08:43:00,26.0,22.0,-100.00,NNE,19,1.0,4.0,86,0.00,,,0.43,1.000000,,2013-01-18 13:43:00,
2013-01-18 08:53:00,26.0,22.0,-100.00,NNE,19,1.0,4.0,86,0.00,,,0.43,1.000000,,2013-01-18 13:53:00,
2013-01-18 09:03:00,26.0,22.0,-100.00,NNE,19,1.0,4.0,86,0.00,,,0.43,1.000000,,2013-01-18 14:03:00,
2013-01-18 09:34:00,32.0,23.0,-100.00,NE,52,2.0,7.0,69,0.00,,,0.41,47.000000,,2013-01-18 14:34:00,
2013-01-18 09:43:00,32.0,23.0,-100.00,NE,52,2.0,7.0,69,0.00,,,0.41,47.000000,,2013-01-18 14:43:00,
2013-01-18 09:53:00,32.0,23.0,-100.00,NE,52,2.0,7.0,69,0.00,,,0.41,47.000000,,2013-01-18 14:53:00,
2013-01-18 10:03:00,32.0,23.0,-100.00,NE,52,2.0,7.0,69,0.00,,,0.41,47.000000,,2013-01-18 15:03:00,
2013-01-18 10:34:00,37.0,22.0,-100.00,North,2,3.0,7.0,55,0.00,,,0.40,180.000000,,2013-01-18 15:34:00,
2013-01-18 10:43:00,37.0,22.0,-100.00,North,2,3.0,7.0,55,0.00,,,0.40,180.000000,,2013-01-18 15:43:00,
2013-01-18 10:54:00,37.0,22.0,-100.00,North,2,3.0,7.0,55,0.00,,,0.40,180.000000,,2013-01-18 15:54:00,
2013-01-18 11:03:00,37.0,22.0,-100.00,North,2,3.0,7.0,55,0.00,,,0.40,180.000000,,2013-01-18 16:03:00,
2013-01-18 11:33:00,39.0,20.0,-100.00,NNW,346,3.0,11.0,47,0.05,,,0.40,500.000000,,2013-01-18 16:33:00,
2013-01-18 11:43:00,39.0,20.0,-100.00,NNW,346,3.0,11.0,47,0.05,,,0.40,500.000000,,2013-01-18 16:43:00,
2013-01-18 11:53:00,39.0,20.0,-100.00,NNW,346,3.0,11.0,47,0.05,,,0.40,500.000000,,2013-01-18 16:53:00,
2013-01-18 12:03:00,39.0,20.0,-100.00,NNW,346,3.0,11.0,47,0.05,,,0.40,500.000000,,2013-01-18 17:03:00,
2013-01-18 12:34:00,41.0,17.0,-100.00,West,276,3.0,7.0,37,0.04,,,0.30,395.000000,,2013-01-18 17:34:00,
2013-01-18 12:43:00,41.0,17.0,-100.00,West,276,3.0,7.0,37,0.04,,,0.30,395.000000,,2013-01-18 17:43:00,
2013-01-18 12:53:00,41.0,17.0,-100.00,West,276,3.0,7.0,37,0.04,,,0.30,395.000000,,2013-01-18 17:53:00,
2013-01-18 13:03:00,41.0,17.0,-100.00,West,276,3.0,7.0,37,0.04,,,0.30,395.000000,,2013-01-18 18:03:00,
2013-01-18 13:34:00,38.0,21.0,-100.00,West,259,3.0,5.0,49,0.08,,,0.23,402.000000,,2013-01-18 18:34:00,
2013-01-18 13:43:00,38.0,21.0,-100.00,West,259,3.0,5.0,49,0.08,,,0.23,402.000000,,2013-01-18 18:43:00,
2013-01-18 13:53:00,38.0,21.0,-100.00,West,259,3.0,5.0,49,0.08,,,0.23,402.000000,,2013-01-18 18:53:00,
2013-01-18 14:03:00,38.0,21.0,-100.00,West,259,3.0,5.0,49,0.08,,,0.23,402.000000,,2013-01-18 19:03:00,
2013-01-18 14:33:00,39.0,18.0,-100.00,West,279,3.0,6.0,42,0.14,,,0.31,326.000000,,2013-01-18 19:33:00,
2013-01-18 14:43:00,39.0,18.0,-100.00,West,279,3.0,6.0,42,0.14,,,0.31,326.000000,,2013-01-18 19:43:00,
2013-01-18 14:53:00,39.0,18.0,-100.00,West,279,3.0,6.0,42,0.14,,,0.31,326.000000,,2013-01-18 19:53:00,
2013-01-18 15:03:00,39.0,18.0,-100.00,West,279,3.0,6.0,42,0.14,,,0.31,326.000000,,2013-01-18 20:03:00,
2013-01-18 15:33:00,42.0,18.0,-100.00,WNW,285,2.0,6.0,38,0.19,,,-99.99,461.000000,,2013-01-18 20:33:00,
2013-01-18 15:43:00,42.0,18.0,-100.00,WNW,285,2.0,6.0,38,0.19,,,-99.99,461.000000,,2013-01-18 20:43:00,
2013-01-18 15:53:00,42.0,18.0,-100.00,WNW,285,2.0,6.0,38,0.19,,,-99.99,461.000000,,2013-01-18 20:53:00,
2013-01-18 16:03:00,42.0,18.0,-100.00,WNW,285,2.0,6.0,38,0.19,,,-99.99,461.000000,,2013-01-18 21:03:00,
2013-01-18 16:33:00,38.0,25.0,-100.00,WSW,243,2.0,6.0,59,0.10,,,-99.99,236.000000,,2013-01-18 21:33:00,
2013-01-18 16:43:00,38.0,25.0,-100.00,WSW,243,2.0,6.0,59,0.10,,,-99.99,236.000000,,2013-01-18 21:43:00,
2013-01-18 16:53:00,38.0,25.0,-100.00,WSW,243,2.0,6.0,59,0.10,,,-99.99,236.000000,,2013-01-18 21:53:00,
2013-01-18 17:03:00,38.0,25.0,-100.00,WSW,243,2.0,6.0,59,0.10,,,-99.99,236.000000,,2013-01-18 22:03:00,
2013-01-18 17:33:00,33.0,23.0,-100.00,NNW,344,2.0,3.0,66,0.00,,,-99.99,23.000000,,2013-01-18 22:33:00,
2013-01-18 17:43:00,33.0,23.0,-100.00,NNW,344,2.0,3.0,66,0.00,,,-99.99,23.000000,,2013-01-18 22:43:00,
2013-01-18 17:53:00,33.0,23.0,-100.00,NNW,344,2.0,3.0,66,0.00,,,-99.99,23.000000,,2013-01-18 22:53:00,
2013-01-18 18:03:00,33.0,23.0,-100.00,NNW,344,2.0,3.0,66,0.00,,,-99.99,23.000000,,2013-01-18 23:03:00,
2013-01-18 18:33:00,30.0,23.0,-100.00,NW,319,1.0,2.0,75,0.00,,,-99.99,3.000000,,2013-01-18 23:33:00,
2013-01-18 18:43:00,30.0,23.0,-100.00,NW,319,1.0,2.0,75,0.00,,,-99.99,3.000000,,2013-01-18 23:43:00,
2013-01-18 18:53:00,30.0,23.0,-100.00,NW,319,1.0,2.0,75,0.00,,,-99.99,3.000000,,2013-01-18 23:53:00,
2013-01-18 19:02:00,30.0,23.0,-100.00,NW,319,1.0,2.0,75,0.00,,,-99.99,3.000000,,2013-01-19 00:02:00,
2013-01-18 19:33:00,28.0,24.0,-100.00,WNW,288,1.0,2.0,83,0.00,,,-99.99,0.000000,,2013-01-19 00:33:00,
2013-01-18 19:43:00,28.0,24.0,-100.00,WNW,288,1.0,2.0,83,0.00,,,-99.99,0.000000,,2013-01-19 00:43:00,
2013-01-18 19:53:00,28.0,24.0,-100.00,WNW,288,1.0,2.0,83,0.00,,,-99.99,0.000000,,2013-01-19 00:53:00,
2013-01-18 20:03:00,28.0,24.0,-100.00,WNW,288,1.0,2.0,83,0.00,,,-99.99,0.000000,,2013-01-19 01:03:00,
2013-01-18 20:33:00,26.0,22.0,-100.00,North,353,1.0,2.0,86,0.00,,,-99.99,0.000000,,2013-01-19 01:33:00,
2013-01-18 20:43:00,26.0,22.0,-100.00,North,353,1.0,2.0,86,0.00,,,-99.99,0.000000,,2013-01-19 01:43:00,
2013-01-18 20:53:00,26.0,22.0,-100.00,North,353,1.0,2.0,86,0.00,,,-99.99,0.000000,,2013-01-19 01:53:00,
2013-01-18 21:03:00,26.0,22.0,-100.00,North,353,1.0,2.0,86,0.00,,,-99.99,0.000000,,2013-01-19 02:03:00,
2013-01-18 21:33:00,26.0,22.0,-100.00,WNW,290,2.0,3.0,86,0.00,,,-99.99,0.000000,,2013-01-19 02:33:00,
2013-01-18 21:43:00,26.0,22.0,-100.00,WNW,290,2.0,3.0,86,0.00,,,-99.99,0.000000,,2013-01-19 02:43:00,
2013-01-18 21:53:00,26.0,22.0,-100.00,WNW,290,2.0,3.0,86,0.00,,,-99.99,0.000000,,2013-01-19 02:53:00,
2013-01-18 22:03:00,26.0,22.0,-100.00,WNW,290,2.0,3.0,86,0.00,,,-99.99,0.000000,,2013-01-19 03:03:00,
2013-01-18 22:33:00,25.0,22.0,-100.00,NNW,339,2.0,3.0,87,0.00,,,0.60,0.000000,,2013-01-19 03:33:00,
2013-01-18 22:44:00,25.0,22.0,-100.00,NNW,339,2.0,3.0,87,0.00,,,0.60,0.000000,,2013-01-19 03:44:00,
2013-01-18 22:53:00,25.0,22.0,-100.00,NNW,339,2.0,3.0,87,0.00,,,0.60,0.000000,,2013-01-19 03:53:00,
2013-01-18 23:02:00,25.0,22.0,-100.00,NNW,339,2.0,3.0,87,0.00,,,0.60,0.000000,,2013-01-19 04:02:00,
2013-01-18 23:33:00,24.0,21.0,-100.00,WNW,282,1.0,2.0,89,0.00,,,0.60,0.000000,,2013-01-19 04:33:00,
2013-01-18 23:43:00,24.0,21.0,-100.00,WNW,282,1.0,2.0,89,0.00,,,0.60,0.000000,,2013-01-19 04:43:00,
2013-01-18 23:53:00,24.0,21.0,-100.00,WNW,282,1.0,2.0,89,0.00,,,0.60,0.000000,,2013-01-19 04:53:00,